User: anonymous   Login
Location: İstanbul
(41.0082°N, 28.9784°E)
Time: 17:59:42
(UTC+03:00)
Language:

Oscar 11 - Orbit

View from above orbital plane
View from above orbital plane
View from above satellite
View from above satellite

Ground track
Ground track

The orbit data is extracted from the following two-line orbital elements,

1 14781U 84021B   21295.95736797  .00000215  00000-0  32309-4 0  9997
2 14781  97.6009 289.5717 0009166  31.4412 328.7348 14.83346045 25831
Epoch (UTC): 22 October 2021 22:58:36
Eccentricity: 0.0009166
inclination: 97.6009°
perigee height: 612 km
apogee height: 625 km
right ascension of ascending node: 289.5717°
argument of perigee: 31.4412°
revolutions per day: 14.83346045
mean anomaly at epoch: 328.7348°
orbit number at epoch: 2583

The dashed part of the orbit path shows where the satellite is in the earth's shadow,  

DLR